Time,TemperatureF,DewpointF,PressureIn,WindDirection,WindDirectionDegrees,WindSpeedMPH,WindSpeedGustMPH,Humidity,HourlyPrecipIn,Conditions,Clouds,dailyrainin,SoftwareType,DateUTC
2013-02-01 00:14:00,40.4,25.0,30.05,SW,232,4.0,-999.0,54,-99.99,,,0.00,weatherlink.com 1.10,2013-02-01 05:14:00,
2013-02-01 00:29:00,40.5,25.0,30.04,WSW,237,3.0,-999.0,54,-99.99,,,0.00,weatherlink.com 1.10,2013-02-01 05:29:00,
2013-02-01 00:44:00,40.5,25.0,30.04,SW,234,3.0,-999.0,54,-99.99,,,0.00,weatherlink.com 1.10,2013-02-01 05:44:00,
2013-02-01 00:59:00,40.7,25.0,30.04,SW,232,4.0,-999.0,54,-99.99,,,0.00,weatherlink.com 1.10,2013-02-01 05:59:00,
2013-02-01 01:14:00,40.6,25.0,30.03,SW,233,9.0,-999.0,55,-99.99,,,0.00,weatherlink.com 1.10,2013-02-01 06:14:00,
2013-02-01 01:29:00,40.8,26.0,30.04,SW,222,1.0,-999.0,55,-99.99,,,0.00,weatherlink.com 1.10,2013-02-01 06:29:00,
2013-02-01 01:44:00,41.1,25.0,30.03,SSW,213,2.0,-999.0,54,-99.99,,,0.00,weatherlink.com 1.10,2013-02-01 06:44:00,
2013-02-01 02:00:00,40.9,26.0,30.02,WSW,240,5.0,-999.0,55,-99.99,,,0.00,weatherlink.com 1.10,2013-02-01 07:00:00,
2013-02-01 02:15:00,40.7,26.0,30.00,WSW,238,5.0,-999.0,56,-99.99,,,0.00,weatherlink.com 1.10,2013-02-01 07:15:00,
2013-02-01 02:30:00,40.5,26.0,30.00,WSW,245,4.0,-999.0,56,-99.99,,,0.00,weatherlink.com 1.10,2013-02-01 07:30:00,
2013-02-01 02:45:00,40.3,26.0,30.00,SW,233,4.0,-999.0,57,-99.99,,,0.00,weatherlink.com 1.10,2013-02-01 07:45:00,
2013-02-01 03:00:00,40.2,26.0,29.99,SW,220,2.0,-999.0,58,-99.99,,,0.00,weatherlink.com 1.10,2013-02-01 08:00:00,
2013-02-01 03:15:00,40.2,26.0,29.99,SW,235,2.0,-999.0,58,-99.99,,,0.00,weatherlink.com 1.10,2013-02-01 08:15:00,
2013-02-01 03:30:00,40.1,26.0,29.98,WSW,245,8.0,-999.0,58,-99.99,,,0.00,weatherlink.com 1.10,2013-02-01 08:30:00,
2013-02-01 03:45:00,40.3,26.0,29.97,SW,235,5.0,-999.0,58,-99.99,,,0.00,weatherlink.com 1.10,2013-02-01 08:45:00,
2013-02-01 04:01:00,40.6,27.0,29.96,WSW,244,4.0,-999.0,58,-99.99,,,0.00,weatherlink.com 1.10,2013-02-01 09:01:00,
2013-02-01 04:16:00,40.8,27.0,29.95,WSW,237,4.0,-999.0,58,-99.99,,,0.00,weatherlink.com 1.10,2013-02-01 09:16:00,
2013-02-01 04:30:00,40.9,27.0,29.95,West,261,6.0,-999.0,58,-99.99,,,0.00,weatherlink.com 1.10,2013-02-01 09:30:00,
2013-02-01 04:46:00,40.7,27.0,29.96,SW,233,5.0,-999.0,58,-99.99,,,0.00,weatherlink.com 1.10,2013-02-01 09:46:00,
2013-02-01 05:01:00,40.8,27.0,29.97,SW,229,7.0,-999.0,58,-99.99,,,0.00,weatherlink.com 1.10,2013-02-01 10:01:00,
2013-02-01 05:16:00,41.1,27.0,29.98,WSW,242,5.0,-999.0,58,-99.99,,,0.00,weatherlink.com 1.10,2013-02-01 10:16:00,
2013-02-01 05:31:00,41.0,29.0,30.01,WSW,241,1.0,-999.0,62,-99.99,,,0.00,weatherlink.com 1.10,2013-02-01 10:31:00,
2013-02-01 05:46:00,41.0,27.0,30.01,SW,234,13.0,-999.0,59,-99.99,,,0.00,weatherlink.com 1.10,2013-02-01 10:46:00,
2013-02-01 06:01:00,40.9,28.0,30.02,WSW,245,3.0,-999.0,60,-99.99,,,0.00,weatherlink.com 1.10,2013-02-01 11:01:00,
2013-02-01 06:16:00,41.1,28.0,30.04,West,261,1.0,-999.0,61,-99.99,,,0.00,weatherlink.com 1.10,2013-02-01 11:16:00,
2013-02-01 06:31:00,41.2,26.0,30.05,West,265,2.0,-999.0,54,-99.99,,,0.00,weatherlink.com 1.10,2013-02-01 11:31:00,
2013-02-01 06:47:00,40.8,24.0,30.07,SW,236,6.0,-999.0,52,-99.99,,,0.00,weatherlink.com 1.10,2013-02-01 11:47:00,
2013-02-01 07:01:00,40.2,21.0,30.08,WSW,252,2.0,-999.0,46,-99.99,,,0.00,weatherlink.com 1.10,2013-02-01 12:01:00,
2013-02-01 07:16:00,39.5,19.0,30.11,WSW,246,4.0,-999.0,44,-99.99,,,0.00,weatherlink.com 1.10,2013-02-01 12:16:00,
2013-02-01 07:32:00,37.6,9.0,30.12,SW,222,3.0,-999.0,31,-99.99,,,0.00,weatherlink.com 1.10,2013-02-01 12:32:00,
2013-02-01 07:47:00,35.9,11.0,30.14,West,274,1.0,-999.0,36,-99.99,,,0.00,weatherlink.com 1.10,2013-02-01 12:47:00,
2013-02-01 08:04:00,34.9,11.0,30.17,West,281,2.0,-999.0,38,-99.99,,,0.00,weatherlink.com 1.10,2013-02-01 13:04:00,
2013-02-01 08:17:00,34.3,11.0,30.18,WSW,244,3.0,-999.0,38,-99.99,,,0.00,weatherlink.com 1.10,2013-02-01 13:17:00,
2013-02-01 08:32:00,34.0,12.0,30.20,SW,236,4.0,-999.0,40,-99.99,,,0.00,weatherlink.com 1.10,2013-02-01 13:32:00,
2013-02-01 08:47:00,34.0,12.0,30.22,SW,226,3.0,-999.0,41,-99.99,,,0.00,weatherlink.com 1.10,2013-02-01 13:47:00,
2013-02-01 09:02:00,34.8,11.0,30.23,WSW,242,3.0,-999.0,38,-99.99,,,0.00,weatherlink.com 1.10,2013-02-01 14:02:00,
2013-02-01 09:17:00,35.0,10.0,30.24,WSW,246,2.0,-999.0,36,-99.99,,,0.00,weatherlink.com 1.10,2013-02-01 14:17:00,
2013-02-01 09:33:00,35.3,10.0,30.25,NW,317,0.0,-999.0,35,-99.99,,,0.00,weatherlink.com 1.10,2013-02-01 14:33:00,
2013-02-01 09:48:00,35.4,9.0,30.26,West,259,2.0,-999.0,34,-99.99,,,0.00,weatherlink.com 1.10,2013-02-01 14:48:00,
2013-02-01 10:03:00,35.1,9.0,30.27,WSW,251,3.0,-999.0,33,-99.99,,,0.00,weatherlink.com 1.10,2013-02-01 15:03:00,
2013-02-01 10:18:00,34.8,9.0,30.28,North,355,2.0,-999.0,34,-99.99,,,0.00,weatherlink.com 1.10,2013-02-01 15:18:00,
2013-02-01 10:33:00,35.0,10.0,30.29,South,188,1.0,-999.0,35,-99.99,,,0.00,weatherlink.com 1.10,2013-02-01 15:33:00,
2013-02-01 10:48:00,36.0,9.0,30.30,SW,234,2.0,-999.0,33,-99.99,,,0.00,weatherlink.com 1.10,2013-02-01 15:48:00,
2013-02-01 11:04:00,36.4,10.0,30.30,NNW,340,2.0,-999.0,33,-99.99,,,0.00,weatherlink.com 1.10,2013-02-01 16:04:00,
2013-02-01 11:19:00,36.6,11.0,30.30,SW,222,1.0,-999.0,34,-99.99,,,0.00,weatherlink.com 1.10,2013-02-01 16:19:00,
2013-02-01 11:33:00,36.4,10.0,30.31,WSW,255,0.0,-999.0,33,-99.99,,,0.00,weatherlink.com 1.10,2013-02-01 16:33:00,
2013-02-01 11:49:00,36.8,9.0,30.31,SW,234,0.0,-999.0,31,-99.99,,,0.00,weatherlink.com 1.10,2013-02-01 16:49:00,
2013-02-01 12:04:00,37.6,11.0,30.31,WSW,238,2.0,-999.0,33,-99.99,,,0.00,weatherlink.com 1.10,2013-02-01 17:04:00,
2013-02-01 12:19:00,37.8,9.0,30.31,NE,47,0.0,-999.0,30,-99.99,,,0.00,weatherlink.com 1.10,2013-02-01 17:19:00,
2013-02-01 12:34:00,38.5,9.0,30.31,WSW,258,0.0,-999.0,30,-99.99,,,0.00,weatherlink.com 1.10,2013-02-01 17:34:00,
2013-02-01 12:49:00,38.3,9.0,30.30,North,351,3.0,-999.0,30,-99.99,,,0.00,weatherlink.com 1.10,2013-02-01 17:49:00,
2013-02-01 13:04:00,38.9,10.0,30.30,WSW,244,0.0,-999.0,31,-99.99,,,0.00,weatherlink.com 1.10,2013-02-01 18:04:00,
2013-02-01 13:19:00,39.3,10.0,30.30,NNW,341,0.0,-999.0,30,-99.99,,,0.00,weatherlink.com 1.10,2013-02-01 18:19:00,
2013-02-01 13:34:00,39.9,10.0,30.30,West,279,3.0,-999.0,29,-99.99,,,0.00,weatherlink.com 1.10,2013-02-01 18:34:00,
2013-02-01 13:49:00,39.7,10.0,30.30,North,351,0.0,-999.0,29,-99.99,,,0.00,weatherlink.com 1.10,2013-02-01 18:49:00,
2013-02-01 14:04:00,39.6,11.0,30.30,WSW,244,0.0,-999.0,31,-99.99,,,0.00,weatherlink.com 1.10,2013-02-01 19:04:00,
2013-02-01 14:19:00,39.7,10.0,30.30,WSW,243,3.0,-999.0,29,-99.99,,,0.00,weatherlink.com 1.10,2013-02-01 19:19:00,
2013-02-01 14:34:00,39.7,10.0,30.31,ENE,65,0.0,-999.0,29,-99.99,,,0.00,weatherlink.com 1.10,2013-02-01 19:34:00,
2013-02-01 14:49:00,40.0,10.0,30.30,SW,223,2.0,-999.0,29,-99.99,,,0.00,weatherlink.com 1.10,2013-02-01 19:49:00,
2013-02-01 15:05:00,40.0,10.0,30.31,WSW,239,1.0,-999.0,29,-99.99,,,0.00,weatherlink.com 1.10,2013-02-01 20:05:00,
2013-02-01 15:20:00,40.9,11.0,30.30,NNW,343,0.0,-999.0,29,-99.99,,,0.00,weatherlink.com 1.10,2013-02-01 20:20:00,
2013-02-01 15:35:00,41.2,10.0,30.30,West,266,1.0,-999.0,28,-99.99,,,0.00,weatherlink.com 1.10,2013-02-01 20:35:00,
2013-02-01 15:50:00,40.6,9.0,30.31,WNW,287,4.0,-999.0,27,-99.99,,,0.00,weatherlink.com 1.10,2013-02-01 20:50:00,
2013-02-01 16:05:00,39.8,9.0,30.31,WSW,248,0.0,-999.0,28,-99.99,,,0.00,weatherlink.com 1.10,2013-02-01 21:05:00,
2013-02-01 16:20:00,39.5,8.0,30.31,SW,226,3.0,-999.0,27,-99.99,,,0.00,weatherlink.com 1.10,2013-02-01 21:20:00,
2013-02-01 16:35:00,38.9,8.0,30.31,WSW,244,1.0,-999.0,28,-99.99,,,0.00,weatherlink.com 1.10,2013-02-01 21:35:00,
2013-02-01 16:50:00,38.9,8.0,30.31,WSW,244,3.0,-999.0,28,-99.99,,,0.00,weatherlink.com 1.10,2013-02-01 21:50:00,
2013-02-01 17:05:00,38.6,7.0,30.32,WSW,244,0.0,-999.0,27,-99.99,,,0.00,weatherlink.com 1.10,2013-02-01 22:05:00,
2013-02-01 17:20:00,38.4,9.0,30.32,WSW,242,2.0,-999.0,29,-99.99,,,0.00,weatherlink.com 1.10,2013-02-01 22:20:00,
2013-02-01 17:35:00,37.9,9.0,30.32,WSW,258,0.0,-999.0,30,-99.99,,,0.00,weatherlink.com 1.10,2013-02-01 22:35:00,
2013-02-01 17:50:00,36.6,8.0,30.33,WSW,258,0.0,-999.0,31,-99.99,,,0.00,weatherlink.com 1.10,2013-02-01 22:50:00,
2013-02-01 18:05:00,35.7,8.0,30.33,WSW,258,0.0,-999.0,32,-99.99,,,0.00,weatherlink.com 1.10,2013-02-01 23:05:00,
2013-02-01 18:21:00,34.8,8.0,30.33,WSW,258,0.0,-999.0,33,-99.99,,,0.00,weatherlink.com 1.10,2013-02-01 23:21:00,
2013-02-01 18:36:00,33.3,7.0,30.34,NNE,28,0.0,-999.0,33,-99.99,,,0.00,weatherlink.com 1.10,2013-02-01 23:36:00,
2013-02-01 18:51:00,32.6,11.0,30.34,NNE,28,1.0,-999.0,40,-99.99,,,0.00,weatherlink.com 1.10,2013-02-01 23:51:00,
2013-02-01 19:06:00,31.8,8.0,30.35,NNE,27,0.0,-999.0,36,-99.99,,,0.00,weatherlink.com 1.10,2013-02-02 00:06:00,
2013-02-01 19:21:00,31.2,11.0,30.36,NNE,27,0.0,-999.0,44,-99.99,,,0.00,weatherlink.com 1.10,2013-02-02 00:21:00,
2013-02-01 19:36:00,30.0,10.0,30.35,NNE,27,0.0,-999.0,43,-99.99,,,0.00,weatherlink.com 1.10,2013-02-02 00:36:00,
2013-02-01 19:51:00,29.8,12.0,30.37,North,360,0.0,-999.0,47,-99.99,,,0.00,weatherlink.com 1.10,2013-02-02 00:51:00,
2013-02-01 20:06:00,29.2,9.0,30.37,North,360,0.0,-999.0,43,-99.99,,,0.00,weatherlink.com 1.10,2013-02-02 01:06:00,
2013-02-01 20:21:00,29.1,11.0,30.38,North,360,0.0,-999.0,46,-99.99,,,0.00,weatherlink.com 1.10,2013-02-02 01:21:00,
2013-02-01 20:37:00,28.3,10.0,30.38,North,360,0.0,-999.0,46,-99.99,,,0.00,weatherlink.com 1.10,2013-02-02 01:37:00,
2013-02-01 20:52:00,28.2,10.0,30.38,North,360,0.0,-999.0,46,-99.99,,,0.00,weatherlink.com 1.10,2013-02-02 01:52:00,
2013-02-01 21:07:00,28.2,13.0,30.38,North,360,0.0,-999.0,53,-99.99,,,0.00,weatherlink.com 1.10,2013-02-02 02:07:00,
2013-02-01 21:22:00,27.8,11.0,30.38,North,360,0.0,-999.0,49,-99.99,,,0.00,weatherlink.com 1.10,2013-02-02 02:22:00,
2013-02-01 21:37:00,27.5,11.0,30.39,North,360,0.0,-999.0,51,-99.99,,,0.00,weatherlink.com 1.10,2013-02-02 02:37:00,
2013-02-01 21:52:00,27.0,11.0,30.39,North,360,0.0,-999.0,52,-99.99,,,0.00,weatherlink.com 1.10,2013-02-02 02:52:00,
2013-02-01 22:07:00,26.5,12.0,30.39,North,360,0.0,-999.0,54,-99.99,,,0.00,weatherlink.com 1.10,2013-02-02 03:07:00,
2013-02-01 22:22:00,26.3,13.0,30.39,North,360,0.0,-999.0,57,-99.99,,,0.00,weatherlink.com 1.10,2013-02-02 03:22:00,
2013-02-01 22:38:00,26.1,11.0,30.39,North,360,0.0,-999.0,53,-99.99,,,0.00,weatherlink.com 1.10,2013-02-02 03:38:00,
2013-02-01 22:53:00,25.6,12.0,30.40,North,360,0.0,-999.0,56,-99.99,,,0.00,weatherlink.com 1.10,2013-02-02 03:53:00,
2013-02-01 23:08:00,25.2,11.0,30.40,North,360,0.0,-999.0,56,-99.99,,,0.00,weatherlink.com 1.10,2013-02-02 04:08:00,
2013-02-01 23:23:00,24.8,11.0,30.40,North,360,0.0,-999.0,56,-99.99,,,0.00,weatherlink.com 1.10,2013-02-02 04:23:00,
2013-02-01 23:38:00,24.6,11.0,30.41,North,360,0.0,-999.0,56,-99.99,,,0.00,weatherlink.com 1.10,2013-02-02 04:38:00,
2013-02-01 23:53:00,24.7,12.0,30.41,North,360,0.0,-999.0,58,-99.99,,,0.00,weatherlink.com 1.10,2013-02-02 04:53:00,